Location: Miami, Florida
(25.6830°N, 80.1700°W)
Time: 05:14:07
(UTC-04:00)

Amateur Radio Satellites - All Passes

Search period start: 16 January 2018 04:44
Search period end: 17 January 2018 04:44
Location: Miami, Florida, 25.6830°N, 80.1700°W

Satellite Date Start Highest point End Downlink Frequencies (MHz)
Time Altitude Azimuth
MOZHAYETS 4 16 Jan 04:54:47 04:57:53 18° 264° (W) 05:01:00
ITUPSAT 1 16 Jan 05:06:37 05:10:29 25° 262° (W) 05:14:24 437.325
NO-84 16 Jan 05:07:11 05:09:31 19° 236° (WSW) 05:11:57 435.350 FM
FALCONSAT 3 16 Jan 05:19:43 05:22:37 22° 146° (SE) 05:25:32 435.103
KKS-1 16 Jan 05:27:17 05:30:51 25° 72° (ENE) 05:34:26 437.445
ITAMSAT 1 16 Jan 05:32:06 05:37:08 51° 285° (WNW) 05:42:08 435.822/435.867
AO-7 16 Jan 05:42:16 05:50:03 45° 292° (WNW) 05:57:49 .
STARS 16 Jan 05:59:44 06:02:58 21° 72° (ENE) 06:06:12 437.465
DOVE 4 16 Jan 06:14:41 06:19:00 69° 283° (WNW) 06:23:34 437.250
LilacSat-2 16 Jan 06:27:09 06:29:31 16° 96° (E) 06:31:53 437.200
CUTE-I 16 Jan 06:27:11 06:29:59 14° 96° (E) 06:32:46 437.470
XW-2C 16 Jan 06:36:16 06:39:02 19° 97° (E) 06:41:46 145.795 - 145.815
M-CUBED/EXP-1 PRIME 16 Jan 06:38:11 06:40:51 23° 291° (WNW) 06:43:27 437.505
SO-50 16 Jan 06:54:07 06:58:17 42° 112° (ESE) 07:02:29 436.795
FALCONSAT 3 16 Jan 06:57:54 07:01:31 57° 337° (NNW) 07:05:08 435.103
STRAND 1 16 Jan 07:03:40 07:06:13 14° 68° (ENE) 07:08:45 437.568
KKS-1 16 Jan 07:04:09 07:07:16 19° 263° (W) 07:10:24 437.445
XW-2F 16 Jan 07:17:18 07:21:02 76° 102° (ESE) 07:24:43 145.980 - 146.000
ISS 16 Jan 07:20:38 07:23:44 40° 46° (NE) 07:26:51 437.550
XW-2D 16 Jan 07:22:04 07:25:48 78° 283° (WNW) 07:29:31 145.860 - 145.880
KAITUO 1B 16 Jan 07:25:26 07:29:07 71° 102° (ESE) 07:32:46 145.475/437.950
nSIGHT-1 16 Jan 07:29:41 07:32:53 84° 230° (SW) 07:36:03 .
CUBEBUG 2 16 Jan 07:30:44 07:33:45 17° 95° (E) 07:36:46 437.445
STARS 16 Jan 07:35:44 07:39:06 22° 262° (W) 07:42:29 437.465
XW-2B 16 Jan 07:39:36 07:43:10 43° 284° (WNW) 07:46:43 145.730 - 145.750
HO-68 16 Jan 07:40:55 07:47:36 42° 101° (E) 07:54:16 435.675
NUDT-PHONESAT 16 Jan 07:46:49 07:50:26 55° 283° (WNW) 07:53:59 437.300
UWE-3 16 Jan 07:48:29 07:50:45 13° 95° (E) 07:52:59 435.000/436.395/437.385
FO-29 16 Jan 07:56:40 08:02:41 28° 72° (ENE) 08:08:12 435.910
LilacSat-2 16 Jan 08:00:50 08:03:38 20° 287° (WNW) 08:06:25 437.200
CUTE-I 16 Jan 08:05:02 08:10:06 47° 286° (WNW) 08:15:10 437.470
XW-2C 16 Jan 08:10:36 08:12:58 16° 288° (WNW) 08:15:20 145.795 - 145.815
AAUSAT CUBESAT 2 16 Jan 08:13:07 08:15:46 17° 96° (E) 08:18:27 437.432
SEEDS 16 Jan 08:13:14 08:17:16 50° 100° (E) 08:21:17 437.485
CUTE 1.7 + AOD 2 16 Jan 08:14:42 08:18:54 80° 282° (WNW) 08:23:05 437.475
ZACube-1 16 Jan 08:24:01 08:27:00 17° 95° (E) 08:29:56 437.345
AO-73 16 Jan 08:34:01 08:37:17 20° 96° (E) 08:40:30 145.935
SO-50 16 Jan 08:36:40 08:38:52 13° 305° (NW) 08:41:03 436.795
FALCONSAT 3 16 Jan 08:38:11 08:40:59 20° 350° (N) 08:43:48 435.103
STRAND 1 16 Jan 08:40:04 08:44:56 46° 260° (W) 08:49:49 437.568
CUBEBUG 2 16 Jan 09:06:03 09:10:18 33° 286° (WNW) 09:14:31 437.445
Oscar 11 16 Jan 09:12:44 09:16:40 34° 99° (E) 09:20:33 .
UWE-3 16 Jan 09:22:53 09:27:12 39° 286° (WNW) 09:31:29 435.000/436.395/437.385
RS-15 16 Jan 09:28:37 09:40:46 71° 111° (ESE) 09:52:56 29.354- 29.394
HO-68 16 Jan 09:29:12 09:34:58 27° 293° (WNW) 09:40:45 435.675
XW-2A 16 Jan 09:32:42 09:35:43 32° 284° (WNW) 09:38:43 145.665 - 145.685
FO-29 16 Jan 09:40:30 09:47:26 41° 260° (W) 09:53:46 435.910
AAUSAT CUBESAT 2 16 Jan 09:47:50 09:51:05 23° 287° (WNW) 09:54:20 437.432
ZACube-1 16 Jan 09:59:17 10:03:11 29° 287° (WNW) 10:07:02 437.345
AO-73 16 Jan 10:09:40 10:13:22 25° 287° (WNW) 10:17:01 145.935
FALCONSAT 3 16 Jan 10:18:10 10:20:48 18° 6° (N) 10:23:25 435.103
TIGRISAT 16 Jan 10:23:57 10:28:11 65° 77° (ENE) 10:32:34 435.000
EO-88 16 Jan 10:26:32 10:28:29 14° 96° (E) 10:30:25 145.990 - 145.960
JUGNU 16 Jan 10:31:23 10:33:29 12° 159° (SSE) 10:35:36 437.505
UNISAT 6 16 Jan 10:37:42 10:42:00 73° 259° (W) 10:46:24 437.425
Oscar 11 16 Jan 10:50:20 10:52:25 13° 289° (WNW) 10:54:29 .
PRISM 16 Jan 10:54:00 10:57:33 29° 74° (ENE) 11:01:05 437.425
AIST 2D 16 Jan 11:00:17 11:00:53 10° 72° (ENE) 11:01:29 435.315
DELFI C3 16 Jan 11:15:01 11:18:35 35° 285° (WNW) 11:22:11 145.870
PCSat 16 Jan 11:18:02 11:23:16 54° 110° (ESE) 11:28:32 145.827
BEESAT 3 16 Jan 11:21:38 11:25:32 64° 114° (ESE) 11:29:29 437.485
Max Valier Satellite 16 Jan 11:27:03 11:30:27 36° 284° (WNW) 11:33:49 145.860
RS-15 16 Jan 11:43:58 11:54:02 29° 309° (NW) 12:04:07 29.354- 29.394
BEESAT 2 16 Jan 11:56:47 12:00:22 33° 111° (ESE) 12:04:01 435.950
FALCONSAT 3 16 Jan 11:56:54 12:00:23 40° 21° (NNE) 12:03:52 435.103
EO-88 16 Jan 11:59:14 12:01:59 21° 286° (WNW) 12:04:42 145.990 - 145.960
LO-87 16 Jan 12:01:48 12:04:59 29° 98° (E) 12:08:10 145.935 - 145.965
POLYITAN 1 16 Jan 12:05:24 12:08:49 24° 73° (ENE) 12:12:14 437.675
ESTCUBE 1 16 Jan 12:13:44 12:17:47 33° 99° (E) 12:21:48 437.505/2401.250
YUBILEINY 16 Jan 12:14:04 12:22:48 82° 85° (E) 12:31:29 435.215
JUGNU 16 Jan 12:17:09 12:22:03 28° 165° (SSE) 12:26:59 437.505
NANOSAT C BR1 16 Jan 12:25:38 12:29:32 38° 75° (ENE) 12:33:26 145.865
AIST 2D 16 Jan 12:30:40 12:33:41 26° 262° (W) 12:36:43 435.315
PRISM 16 Jan 12:30:48 12:32:45 13° 264° (W) 12:34:43 437.425
QB50P2 16 Jan 12:33:44 12:37:54 69° 77° (ENE) 12:42:07 145.880/145.840
BUGSAT 1 16 Jan 13:00:59 13:03:22 15° 71° (ENE) 13:05:45 437.445
O/OREOS (USA 219) 16 Jan 13:01:41 13:06:10 82° 73° (ENE) 13:10:38 437.305
PCSat 16 Jan 13:03:59 13:06:54 15° 303° (WNW) 13:09:49 145.827
EO-79 16 Jan 13:06:46 13:10:48 47° 260° (W) 13:14:52 145.935-145.965
DUCHIFAT 1 16 Jan 13:12:15 13:16:19 56° 259° (W) 13:20:27 145.980
SPROUT 16 Jan 13:14:41 13:18:38 36° 99° (E) 13:22:34 437.525
Gurwin Techsat 1B 16 Jan 13:15:08 13:17:05 12° 67° (ENE) 13:19:01 435.225
FALCONSAT 3 16 Jan 13:36:03 13:39:24 34° 212° (SSW) 13:42:45 435.103
BEESAT 2 16 Jan 13:36:12 13:38:08 13° 304° (NW) 13:40:04 435.950
LO-87 16 Jan 13:37:34 13:38:00 10° 289° (WNW) 13:38:27 145.935 - 145.965
AO-85 16 Jan 13:40:59 13:44:48 71° 114° (ESE) 13:48:47 145.980
POLYITAN 1 16 Jan 13:41:41 13:44:27 17° 264° (W) 13:47:15 437.675
ESTCUBE 1 16 Jan 13:51:44 13:54:13 15° 290° (WNW) 13:56:42 437.505/2401.250
NANOSAT C BR1 16 Jan 14:04:36 14:05:17 10° 265° (W) 14:05:57 145.865
JUGNU 16 Jan 14:05:10 14:10:44 45° 174° (S) 14:16:20 437.505
Oscar 19 16 Jan 14:07:26 14:12:34 67° 76° (ENE) 14:17:43 437.125/150
VELOX 1 16 Jan 14:12:39 14:17:02 81° 283° (WNW) 14:21:26 145.980
YUBILEINY 16 Jan 14:14:52 14:18:27 13° 278° (W) 14:22:03 435.215
SRMSAT 16 Jan 14:16:26 14:20:29 19° 161° (SSE) 14:24:33 437.500
AO-91 16 Jan 14:23:45 14:27:13 63° 259° (W) 14:30:34 145.960
BUGSAT 1 16 Jan 14:35:06 14:38:26 25° 262° (W) 14:41:47 437.445
AO-7 16 Jan 14:41:47 14:47:29 21° 62° (ENE) 14:53:11 .
DX 1 16 Jan 14:45:32 14:49:32 36° 100° (E) 14:53:32 434.975-435.025
UKube-1 16 Jan 14:45:37 14:48:46 20° 97° (E) 14:51:54 .
Gurwin Techsat 1B 16 Jan 14:51:14 14:56:26 58° 258° (WSW) 15:01:41 435.225
SPROUT 16 Jan 14:52:17 14:54:06 13° 290° (WNW) 14:55:57 437.525
MOZHAYETS 4 16 Jan 15:21:27 15:23:34 13° 95° (E) 15:25:40
50 SAT 16 Jan 15:30:55 15:33:49 36° 284° (WNW) 15:36:42 437.505
ITUPSAT 1 16 Jan 15:39:47 15:41:00 11° 95° (E) 15:42:13 437.325
JUGNU 16 Jan 15:53:53 15:59:31 47° 184° (S) 16:05:11 437.505
SRMSAT 16 Jan 16:03:50 16:09:17 37° 168° (SSE) 16:14:45 437.500
BEESAT 16 Jan 16:20:03 16:24:28 37° 99° (E) 16:28:52 436.000
UKube-1 16 Jan 16:21:16 16:24:37 22° 288° (WNW) 16:27:58 .
DX 1 16 Jan 16:23:26 16:25:19 13° 290° (WNW) 16:27:12 434.975-435.025
AO-7 16 Jan 16:31:12 16:39:27 67° 255° (WSW) 16:47:46 .
ITAMSAT 1 16 Jan 16:41:35 16:46:45 78° 258° (WSW) 16:51:55 435.822/435.867
CUBESAT XI-V 16 Jan 16:46:10 16:50:10 29° 98° (E) 16:54:07 437.345
MOZHAYETS 4 16 Jan 16:56:27 17:00:44 39° 286° (WNW) 17:05:00
DOVE 4 16 Jan 17:12:06 17:16:25 44° 76° (ENE) 17:20:31 437.250
SO-50 16 Jan 17:12:42 17:17:24 60° 63° (ENE) 17:22:08 436.795
M-CUBED/EXP-1 PRIME 16 Jan 17:13:47 17:18:22 84° 72° (ENE) 17:22:46 437.505
ITUPSAT 1 16 Jan 17:14:17 17:18:56 49° 285° (WNW) 17:23:33 437.325
CUTE-I 16 Jan 17:42:58 17:44:09 11° 67° (ENE) 17:45:22 437.470
JUGNU 16 Jan 17:43:02 17:48:14 32° 193° (SSW) 17:53:30 437.505
XW-2F 16 Jan 17:52:20 17:53:22 11° 71° (ENE) 17:54:23 145.980 - 146.000
SRMSAT 16 Jan 17:52:26 17:58:12 49° 178° (S) 18:04:00 437.500
XW-2D 16 Jan 17:56:20 17:58:32 15° 72° (ENE) 18:00:43 145.860 - 145.880
BEESAT 16 Jan 17:59:04 18:01:51 16° 291° (WNW) 18:04:38 436.000
HO-68 16 Jan 18:04:36 18:07:25 13° 62° (ENE) 18:10:13 435.675
XW-2B 16 Jan 18:12:45 18:15:50 24° 74° (ENE) 18:18:56 145.730 - 145.750
NUDT-PHONESAT 16 Jan 18:18:19 18:20:49 17° 73° (ENE) 18:23:18 437.300
CUBESAT XI-V 16 Jan 18:24:10 18:27:14 18° 289° (WNW) 18:30:17 437.345
LilacSat-2 16 Jan 18:33:14 18:37:01 54° 77° (ENE) 18:40:48 437.200
NO-84 16 Jan 18:37:25 18:40:39 73° 126° (SE) 18:43:39 435.350 FM
XW-2C 16 Jan 18:41:55 18:45:44 67° 77° (ENE) 18:49:32 145.795 - 145.815
RS-15 16 Jan 18:42:51 18:53:10 36° 54° (NE) 19:02:58 29.354- 29.394
DOVE 4 16 Jan 18:54:00 18:54:06 10° 264° (W) 18:54:12 437.250
SEEDS 16 Jan 18:58:40 19:00:27 12° 71° (ENE) 19:02:13 437.485
CUTE 1.7 + AOD 2 16 Jan 18:59:29 19:02:56 24° 73° (ENE) 19:06:23 437.475
KKS-1 16 Jan 19:01:37 19:05:55 51° 285° (WNW) 19:10:14 437.445
CUTE-I 16 Jan 19:18:18 19:23:34 65° 258° (WSW) 19:28:51 437.470
XW-2F 16 Jan 19:23:40 19:27:05 31° 261° (W) 19:30:30 145.980 - 146.000
XW-2D 16 Jan 19:29:20 19:32:25 23° 263° (W) 19:35:30 145.860 - 145.880
KAITUO 1B 16 Jan 19:30:43 19:34:09 33° 261° (W) 19:37:36 145.475/437.950
STARS 16 Jan 19:31:48 19:36:10 64° 283° (WNW) 19:40:31 437.465
JUGNU 16 Jan 19:33:29 19:36:52 15° 200° (SSW) 19:40:15 437.505
SRMSAT 16 Jan 19:41:32 19:47:11 43° 188° (S) 19:52:49 437.500
HO-68 16 Jan 19:47:03 19:54:13 85° 255° (WSW) 20:01:24 435.675
XW-2B 16 Jan 19:47:48 19:49:54 14° 264° (W) 19:51:58 145.730 - 145.750
NUDT-PHONESAT 16 Jan 19:51:46 19:54:25 18° 263° (W) 19:57:05 437.300
CUBEBUG 2 16 Jan 19:55:13 19:59:25 76° 78° (ENE) 20:03:47 437.445
XW-2A 16 Jan 19:55:59 19:58:19 17° 73° (ENE) 20:00:40 145.665 - 145.685
UWE-3 16 Jan 20:10:58 20:15:11 59° 76° (ENE) 20:19:31 435.000/436.395/437.385
AAUSAT CUBESAT 2 16 Jan 20:28:25 20:32:32 72° 78° (ENE) 20:36:40 437.432
SEEDS 16 Jan 20:31:53 20:35:45 35° 261° (W) 20:39:37 437.485
CUTE 1.7 + AOD 2 16 Jan 20:35:41 20:38:37 18° 264° (W) 20:41:34 437.475
ZACube-1 16 Jan 20:45:42 20:50:00 78° 77° (ENE) 20:54:26 437.345
RS-15 16 Jan 20:54:51 21:05:38 51° 252° (WSW) 21:16:01 29.354- 29.394
AO-73 16 Jan 20:55:33 20:59:53 89° 57° (ENE) 21:04:19 145.935
STRAND 1 16 Jan 20:58:31 21:03:37 68° 284° (WNW) 21:08:43 437.568
FO-29 16 Jan 20:59:10 21:03:59 39° 100° (E) 21:08:54 435.910
BEESAT 3 16 Jan 21:22:59 21:26:44 48° 62° (ENE) 21:30:26 437.485
XW-2A 16 Jan 21:28:54 21:30:49 14° 264° (W) 21:32:46 145.665 - 145.685
SRMSAT 16 Jan 21:31:14 21:36:01 25° 197° (SSW) 21:40:47 437.500
Oscar 11 16 Jan 21:34:35 21:38:46 47° 260° (W) 21:42:58 .
DELFI C3 16 Jan 21:51:38 21:55:13 35° 75° (ENE) 21:58:47 145.870
PCSat 16 Jan 21:57:02 22:02:28 85° 67° (ENE) 22:07:52 145.827
Max Valier Satellite 16 Jan 21:57:36 22:00:40 25° 74° (ENE) 22:03:43 145.860
BEESAT 2 16 Jan 21:59:13 22:02:41 28° 60° (ENE) 22:06:05 435.950
ISS 16 Jan 22:17:52 22:21:05 63° 129° (SE) 22:24:17 437.550
TIGRISAT 16 Jan 22:23:41 22:27:42 28° 98° (E) 22:31:42 435.000
nSIGHT-1 16 Jan 22:24:18 22:27:23 55° 313° (NW) 22:30:30 .
EO-88 16 Jan 22:27:35 22:31:02 40° 76° (ENE) 22:34:28 145.990 - 145.960
UNISAT 6 16 Jan 22:37:12 22:41:43 46° 100° (E) 22:46:13 437.425
FO-29 16 Jan 22:45:47 22:48:45 16° 291° (WNW) 22:51:45 435.910
ESTCUBE 1 16 Jan 23:07:19 23:09:01 12° 69° (ENE) 23:10:42 437.505/2401.250
YUBILEINY 16 Jan 23:11:55 23:17:07 17° 83° (E) 23:22:17 435.215
Max Valier Satellite 16 Jan 23:32:44 23:34:23 13° 265° (W) 23:36:02 145.860
BEESAT 2 16 Jan 23:38:02 23:40:03 14° 252° (WSW) 23:42:03 435.950
AO-85 16 Jan 23:58:42 00:03:52 85° 244° (WSW) 00:09:14 145.980
TIGRISAT 17 Jan 00:00:46 00:04:06 20° 289° (WNW) 00:07:27 435.000
LO-87 17 Jan 00:02:01 00:05:32 86° 77° (ENE) 00:09:04 145.935 - 145.965
AIST 2D 17 Jan 00:02:50 00:06:01 35° 98° (E) 00:09:12 435.315
UNISAT 6 17 Jan 00:16:09 00:17:56 12° 291° (WNW) 00:19:43 437.425
PRISM 17 Jan 00:17:33 00:21:29 49° 285° (WNW) 00:25:25 437.425
NANOSAT C BR1 17 Jan 00:19:37 00:21:24 12° 95° (E) 00:23:11 145.865
QB50P2 17 Jan 00:27:13 00:30:32 22° 97° (E) 00:33:50 145.880/145.840
ESTCUBE 1 17 Jan 00:41:03 00:45:21 42° 260° (W) 00:49:40 437.505/2401.250
EO-79 17 Jan 00:59:08 01:03:18 51° 100° (E) 01:07:26 145.935-145.965
VELOX 1 17 Jan 01:01:52 01:05:43 30° 73° (ENE) 01:09:34 145.980
DUCHIFAT 1 17 Jan 01:04:04 01:08:06 41° 100° (E) 01:12:05 145.980
YUBILEINY 17 Jan 01:04:12 01:12:58 70° 276° (W) 01:21:46 435.215
O/OREOS (USA 219) 17 Jan 01:27:16 01:30:59 25° 102° (ESE) 01:34:41 437.305
POLYITAN 1 17 Jan 01:32:48 01:36:59 55° 284° (WNW) 01:41:10 437.675
SPROUT 17 Jan 01:34:54 01:38:56 45° 260° (W) 01:43:00 437.525
DX 1 17 Jan 01:35:21 01:36:50 12° 69° (ENE) 01:38:18 434.975-435.025
50 SAT 17 Jan 01:49:49 01:50:16 10° 72° (ENE) 01:50:44 437.505
NANOSAT C BR1 17 Jan 01:53:14 01:57:06 34° 285° (WNW) 02:00:56 145.865
QB50P2 17 Jan 02:02:57 02:06:06 20° 288° (WNW) 02:09:14 145.880/145.840
AO-91 17 Jan 02:19:29 02:23:50 45° 101° (E) 02:28:35 145.960
BUGSAT 1 17 Jan 02:23:39 02:27:55 84° 102° (ESE) 02:32:09 437.445
Oscar 19 17 Jan 02:27:27 02:32:25 46° 101° (E) 02:37:20 437.125/150
VELOX 1 17 Jan 02:39:35 02:42:06 15° 264° (W) 02:44:38 145.980
DUCHIFAT 1 17 Jan 02:42:23 02:43:17 11° 291° (WNW) 02:44:12 145.980
NO-84 17 Jan 02:54:38 02:55:45 11° 47° (NE) 02:56:52 435.350 FM
UKube-1 17 Jan 03:06:17 03:10:34 80° 257° (WSW) 03:14:52 .
O/OREOS (USA 219) 17 Jan 03:07:02 03:10:16 19° 293° (WNW) 03:13:29 437.305
DX 1 17 Jan 03:08:31 03:12:35 40° 260° (W) 03:16:39 434.975-435.025
Gurwin Techsat 1B 17 Jan 03:15:41 03:20:59 73° 284° (WNW) 03:26:16 435.225
BEESAT 17 Jan 03:19:29 03:22:33 17° 70° (ENE) 03:25:38 436.000
50 SAT 17 Jan 03:19:29 03:21:43 18° 262° (W) 03:23:57 437.505
CUBESAT XI-V 17 Jan 03:43:29 03:45:09 12° 69° (ENE) 03:46:50 437.345
MOZHAYETS 4 17 Jan 03:49:21 03:53:56 74° 77° (ENE) 03:58:33
AO-91 17 Jan 03:58:05 03:59:58 12° 288° (WNW) 04:01:56 145.960
Oscar 19 17 Jan 04:08:35 04:11:15 14° 292° (WNW) 04:13:55 437.125/150
ITUPSAT 1 17 Jan 04:12:22 04:17:06 74° 76° (ENE) 04:21:52 437.325
NO-84 17 Jan 04:30:07 04:32:52 29° 235° (SW) 04:35:49 435.350 FM
